When you browse on this site, cookies collect data to enhance your experience and personalize the content and advertising you see.
Visit our Privacy Policy to learn more. By continuing to use the site, you agree to this use of cookies and data.
  • In Hungary
  • List of Countries
  • For 7 days
  • Water Temperature
  • Weather Map
  • News
  • Weather Widgets
  • user-avatar
    Login

    Hourly Weather La Couvertoirade

    Today, 17 November, Sunday

    Time Temperature Precipitation Wind Pressure Humidity
    00:00 +3°C° 0 mm 1 mps 693 mmHg 95%
    01:00 +2°C° 0.1 mm 2 mps 693 mmHg 94%
    02:00 +2°C° 0.1 mm 2 mps 692 mmHg 93%
    03:00 +1°C° 0.1 mm 3 mps 692 mmHg 92%
    04:00 +1°C° 0 mm 3 mps 692 mmHg 91%
    05:00 0°C° 0 mm 3 mps 692 mmHg 91%
    06:00 -1°C° 0 mm 4 mps 692 mmHg 90%
    07:00 -1°C° 0 mm 4 mps 692 mmHg 87%
    08:00 +1°C° 0 mm 3 mps 692 mmHg 84%
    09:00 +2°C° 0 mm 3 mps 692 mmHg 81%
    10:00 +3°C° 0 mm 3 mps 692 mmHg 77%
    11:00 +3°C° 0 mm 4 mps 692 mmHg 73%
    12:00 +4°C° 0 mm 4 mps 692 mmHg 70%
    13:00 +4°C° 0 mm 3 mps 692 mmHg 70%
    14:00 +4°C° 0 mm 3 mps 692 mmHg 71%
    15:00 +4°C° 0 mm 3 mps 692 mmHg 72%
    16:00 +3°C° 0 mm 2 mps 692 mmHg 77%
    17:00 +2°C° 0 mm 2 mps 692 mmHg 82%
    18:00 +1°C° 0 mm 1 mps 692 mmHg 88%
    19:00 +1°C° 0 mm 1 mps 692 mmHg 87%
    20:00 +1°C° 0 mm 1 mps 693 mmHg 87%
    21:00 +1°C° 0 mm 1 mps 693 mmHg 87%
    22:00 +1°C° 0 mm 1 mps 693 mmHg 86%
    23:00 +1°C° 0 mm 1 mps 693 mmHg 86%

    Tomorrow, 18 November, Monday

    Time Temperature Precipitation Wind Pressure Humidity
    00:00 +1°C° 0 mm 1 mps 693 mmHg 85%
    01:00 0°C° 0 mm 1 mps 693 mmHg 85%
    02:00 0°C° 0 mm 1 mps 693 mmHg 84%
    03:00 0°C° 0 mm 1 mps 693 mmHg 84%
    04:00 0°C° 0 mm 1 mps 694 mmHg 84%
    05:00 0°C° 0 mm 1 mps 694 mmHg 85%
    06:00 0°C° 0 mm 1 mps 694 mmHg 85%
    07:00 +1°C° 0 mm 1 mps 695 mmHg 79%
    08:00 +3°C° 0 mm 1 mps 695 mmHg 73%
    09:00 +4°C° 0 mm 1 mps 696 mmHg 67%
    10:00 +4°C° 0 mm 2 mps 696 mmHg 64%
    11:00 +6°C° 0 mm 2 mps 696 mmHg 60%
    12:00 +7°C° 0 mm 2 mps 696 mmHg 56%
    13:00 +5°C° 0 mm 3 mps 696 mmHg 60%
    14:00 +5°C° 0 mm 3 mps 696 mmHg 64%
    15:00 +4°C° 0 mm 3 mps 696 mmHg 68%
    16:00 +3°C° 0 mm 4 mps 696 mmHg 75%
    17:00 +1°C° 0 mm 4 mps 696 mmHg 81%
    18:00 -1°C° 0 mm 4 mps 696 mmHg 87%
    19:00 -1°C° 0 mm 4 mps 696 mmHg 88%
    20:00 -1°C° 0 mm 4 mps 697 mmHg 88%
    21:00 -1°C° 0 mm 4 mps 697 mmHg 88%
    22:00 -2°C° 0 mm 4 mps 697 mmHg 88%
    23:00 -2°C° 0 mm 4 mps 697 mmHg 87%

    Day after tomorrow, 19 November, Tuesday

    Time Temperature Precipitation Wind Pressure Humidity
    00:00 -2°C° 0 mm 4 mps 697 mmHg 87%
    01:00 -1°C° 0 mm 3 mps 697 mmHg 87%
    02:00 -1°C° 0 mm 3 mps 697 mmHg 87%
    03:00 -2°C° 0 mm 3 mps 697 mmHg 88%
    04:00 -2°C° 0 mm 3 mps 697 mmHg 89%
    05:00 -2°C° 0 mm 3 mps 697 mmHg 90%
    06:00 -3°C° 0 mm 2 mps 697 mmHg 91%
    07:00 -2°C° 0 mm 2 mps 698 mmHg 86%
    08:00 +1°C° 0 mm 2 mps 698 mmHg 82%
    09:00 +2°C° 0 mm 2 mps 698 mmHg 78%
    10:00 +3°C° 0 mm 2 mps 699 mmHg 74%
    11:00 +4°C° 0 mm 2 mps 699 mmHg 69%
    12:00 +5°C° 0 mm 2 mps 699 mmHg 65%
    13:00 +5°C° 0 mm 2 mps 698 mmHg 66%
    14:00 +6°C° 0 mm 1 mps 698 mmHg 68%
    15:00 +6°C° 0 mm 1 mps 698 mmHg 69%
    16:00 +5°C° 0 mm 1 mps 698 mmHg 75%
    17:00 +3°C° 0 mm 1 mps 698 mmHg 80%
    18:00 +1°C° 0 mm 1 mps 697 mmHg 85%
    19:00 +1°C° 0 mm 1 mps 697 mmHg 85%
    20:00 +1°C° 0 mm 1 mps 698 mmHg 85%
    21:00 +1°C° 0 mm 1 mps 698 mmHg 86%
    22:00 +1°C° 0 mm 1 mps 698 mmHg 86%
    23:00 +1°C° 0 mm 1 mps 698 mmHg 87%

    20 November, Wednesday

    Time Temperature Precipitation Wind Pressure Humidity
    00:00 +1°C° 0 mm 1 mps 697 mmHg 88%
    01:00 +1°C° 0 mm 1 mps 697 mmHg 90%
    02:00 +1°C° 0 mm 1 mps 697 mmHg 91%
    03:00 -1°C° 0 mm 2 mps 697 mmHg 92%
    04:00 +1°C° 0 mm 2 mps 697 mmHg 89%
    05:00 0°C° 0 mm 3 mps 697 mmHg 87%
    06:00 +1°C° 0 mm 3 mps 696 mmHg 85%
    07:00 0°C° 0 mm 4 mps 696 mmHg 83%
    08:00 +1°C° 0 mm 4 mps 696 mmHg 82%
    09:00 +1°C° 0 mm 5 mps 696 mmHg 80%
    10:00 +1°C° 0 mm 5 mps 696 mmHg 82%
    11:00 +2°C° 0 mm 5 mps 696 mmHg 85%
    12:00 +2°C° 0 mm 5 mps 696 mmHg 87%
    13:00 +3°C° 0.1 mm 5 mps 695 mmHg 89%
    14:00 +3°C° 0.1 mm 5 mps 695 mmHg 90%
    15:00 +3°C° 0.1 mm 5 mps 695 mmHg 92%
    16:00 +5°C° 0.3 mm 5 mps 695 mmHg 92%
    17:00 +4°C° 0.3 mm 6 mps 695 mmHg 92%
    18:00 +4°C° 0.3 mm 6 mps 695 mmHg 92%
    19:00 +4°C° 0.2 mm 6 mps 695 mmHg 92%
    20:00 +4°C° 0.2 mm 6 mps 695 mmHg 93%
    21:00 +4°C° 0.2 mm 6 mps 695 mmHg 93%
    22:00 +4°C° 0.6 mm 6 mps 695 mmHg 93%
    23:00 +5°C° 0.6 mm 5 mps 694 mmHg 94%

    21 November, Thursday

    Time Temperature Precipitation Wind Pressure Humidity
    00:00 +5°C° 0.6 mm 5 mps 694 mmHg 94%
    01:00 +4°C° 1 mm 6 mps 694 mmHg 94%
    02:00 +4°C° 1 mm 6 mps 693 mmHg 94%
    03:00 +4°C° 1 mm 6 mps 693 mmHg 95%
    04:00 +5°C° 0.7 mm 6 mps 693 mmHg 95%
    05:00 +5°C° 0.7 mm 6 mps 692 mmHg 95%
    06:00 +5°C° 0.7 mm 6 mps 692 mmHg 95%
    07:00 +5°C° 0.4 mm 6 mps 692 mmHg 94%
    08:00 +5°C° 0.4 mm 6 mps 692 mmHg 94%
    09:00 +6°C° 0.4 mm 5 mps 692 mmHg 93%
    10:00 +7°C° 0.4 mm 6 mps 692 mmHg 90%
    11:00 +7°C° 0.4 mm 6 mps 692 mmHg 88%
    12:00 +8°C° 0.4 mm 6 mps 692 mmHg 85%
    13:00 +8°C° 0.2 mm 5 mps 691 mmHg 85%
    14:00 +8°C° 0.2 mm 5 mps 691 mmHg 86%
    15:00 +8°C° 0.2 mm 4 mps 691 mmHg 86%
    16:00 +7°C° 0.1 mm 4 mps 691 mmHg 88%
    17:00 +7°C° 0.1 mm 3 mps 692 mmHg 91%
    18:00 +7°C° 0.1 mm 3 mps 692 mmHg 93%
    19:00 +7°C° 0.1 mm 3 mps 692 mmHg 94%
    20:00 +7°C° 0.1 mm 3 mps 692 mmHg 94%
    21:00 +7°C° 0.1 mm 3 mps 692 mmHg 95%
    22:00 +7°C° 0.1 mm 3 mps 692 mmHg 94%
    23:00 +6°C° 0.1 mm 4 mps 692 mmHg 94%

    22 November, Friday

    Time Temperature Precipitation Wind Pressure Humidity
    00:00 +6°C° 0.1 mm 4 mps 692 mmHg 93%
    01:00 +7°C° 0.4 mm 4 mps 691 mmHg 93%
    02:00 +7°C° 0.4 mm 5 mps 691 mmHg 93%
    03:00 +7°C° 0.4 mm 5 mps 691 mmHg 94%
    04:00 +7°C° 0.9 mm 5 mps 691 mmHg 94%
    05:00 +7°C° 0.9 mm 4 mps 691 mmHg 95%
    06:00 +7°C° 0.9 mm 4 mps 691 mmHg 96%
    07:00 +8°C° 0.3 mm 3 mps 691 mmHg 95%
    08:00 +8°C° 0.3 mm 2 mps 691 mmHg 94%
    09:00 +9°C° 0.3 mm 2 mps 692 mmHg 93%
    10:00 +8°C° 0.3 mm 2 mps 692 mmHg 91%
    11:00 +8°C° 0.3 mm 2 mps 692 mmHg 89%
    12:00 +7°C° 0.3 mm 2 mps 692 mmHg 88%
    13:00 +5°C° 0.3 mm 3 mps 692 mmHg 88%
    14:00 +5°C° 0.3 mm 3 mps 691 mmHg 89%
    15:00 +4°C° 0.3 mm 3 mps 691 mmHg 90%
    16:00 +4°C° 0 mm 3 mps 692 mmHg 89%
    17:00 +5°C° 0 mm 2 mps 692 mmHg 89%
    18:00 +4°C° 0 mm 2 mps 693 mmHg 89%
    19:00 +4°C° 0 mm 2 mps 693 mmHg 89%
    20:00 +4°C° 0 mm 2 mps 693 mmHg 90%
    21:00 +3°C° 0 mm 2 mps 694 mmHg 91%
    22:00 +3°C° 0 mm 2 mps 694 mmHg 91%
    23:00 +3°C° 0 mm 2 mps 694 mmHg 91%
    Show more